QPF
0.10 0.13 0.21 0.17 0.15 0.13 0.11 0.08 0.07 0.08 0.09 0.08 0.07 0.08 0.07 0.07 0.06 0.05 0.05 0.07 0.07 0.06 0.08 0.10 0.10 0.09 0.09 0.13 0.16 0.13 0.06 0.05 0.05 0.05 0.04 0.04 0.05 0.05 0.05 0.05 0.06 0.04 0.03
0.08 0.12 0.19 0.15 0.12 0.11 0.08 0.07 0.06 0.07 0.09 0.08 0.07 0.05 0.05 0.06 0.05 0.05 0.04 0.05 0.05 0.04 0.05 0.06 0.06 0.08 0.09 0.14 0.14 0.08 0.05 0.05 0.07 0.07 0.05 0.05 0.05 0.06 0.06 0.04 0.06 0.06 0.03
0.08 0.12 0.15 0.14 0.12 0.10 0.09 0.08 0.09 0.09 0.09 0.08 0.05 0.05 0.06 0.07 0.06 0.05 0.05 0.05 0.04 0.04 0.05 0.06 0.05 0.08 0.10 0.14 0.11 0.07 0.05 0.05 0.06 0.07 0.06 0.06 0.06 0.07 0.06 0.04 0.04 0.05 0.04
0.06 0.08 0.08 0.10 0.10 0.09 0.10 0.12 0.13 0.11 0.08 0.09 0.07 0.06 0.07 0.08 0.07 0.06 0.06 0.06 0.05 0.04 0.06 0.08 0.09 0.09 0.10 0.12 0.09 0.07 0.07 0.05 0.06 0.06 0.04 0.05 0.05 0.06 0.06 0.05 0.05 0.08 0.07
0.05 0.06 0.06 0.08 0.10 0.09 0.09 0.11 0.12 0.10 0.08 0.08 0.09 0.10 0.12 0.11 0.11 0.08 0.08 0.08 0.07 0.05 0.06 0.07 0.08 0.08 0.08 0.09 0.07 0.07 0.08 0.05 0.04 0.04 0.04 0.05 0.06 0.06 0.06 0.07 0.08 0.11 0.09
0.05 0.07 0.09 0.11 0.09 0.07 0.08 0.09 0.11 0.10 0.09 0.08 0.10 0.12 0.14 0.14 0.12 0.10 0.09 0.08 0.07 0.06 0.05 0.07 0.07 0.06 0.06 0.06 0.05 0.08 0.09 0.06 0.04 0.04 0.04 0.03 0.04 0.04 0.06 0.07 0.08 0.08 0.09
0.07 0.09 0.14 0.11 0.09 0.09 0.08 0.10 0.17 0.17 0.13 0.10 0.09 0.10 0.11 0.11 0.10 0.10 0.09 0.07 0.06 0.05 0.05 0.06 0.07 0.06 0.05 0.05 0.06 0.09 0.09 0.05 0.03 0.03 0.02 0.03 0.03 0.03 0.05 0.07 0.07 0.07 0.07
0.05 0.07 0.11 0.11 0.09 0.09 0.08 0.11 0.19 0.22 0.20 0.16 0.15 0.15 0.14 0.14 0.13 0.11 0.09 0.08 0.07 0.06 0.05 0.05 0.06 0.06 0.07 0.06 0.09 0.11 0.08 0.04 0.02 0.02 0.02 0.02 0.02 0.03 0.03 0.04 0.05 0.07 0.07
0.04 0.06 0.09 0.08 0.08 0.08 0.08 0.11 0.14 0.18 0.23 0.21 0.19 0.16 0.14 0.14 0.13 0.12 0.11 0.10 0.09 0.08 0.07 0.06 0.07 0.09 0.07 0.06 0.09 0.09 0.06 0.05 0.03 0.03 0.02 0.02 0.03 0.03 0.04 0.04 0.04 0.05 0.06
0.04 0.04 0.04 0.05 0.07 0.08 0.08 0.08 0.11 0.14 0.14 0.15 0.13 0.12 0.12 0.16 0.20 0.16 0.13 0.12 0.12 0.10 0.08 0.07 0.09 0.10 0.06 0.05 0.07 0.07 0.05 0.03 0.02 0.01 0.01 0.02 0.03 0.03 0.05 0.06 0.05 0.04 0.04
0.03 0.03 0.04 0.04 0.05 0.06 0.07 0.06 0.08 0.08 0.08 0.09 0.10 0.08 0.12 0.21 0.20 0.18 0.13 0.12 0.12 0.11 0.10 0.09 0.11 0.10 0.06 0.04 0.05 0.04 0.04 0.02 0.02 0.02 0.02 0.02 0.02 0.04 0.06 0.08 0.07 0.05 0.06
0.02 0.02 0.02 0.03 0.02 0.02 0.03 0.06 0.07 0.05 0.05 0.06 0.08 0.07 0.09 0.12 0.15 0.16 0.13 0.12 0.12 0.10 0.09 0.09 0.10 0.07 0.04 0.04 0.03 0.03 0.03 0.01 0.02 0.02 0.01 0.02 0.03 0.05 0.06 0.07 0.08 0.07 0.07
0.01 0.01 0.01 0.02 0.01 0.02 0.02 0.03 0.03 0.04 0.04 0.05 0.06 0.05 0.05 0.06 0.08 0.10 0.11 0.11 0.10 0.08 0.06 0.05 0.04 0.03 0.03 0.04 0.04 0.03 0.03 0.03 0.02 0.02 0.01 0.02 0.03 0.04 0.06 0.08 0.11 0.10 0.08
0.00 0.01 0.01 0.01 0.01 0.01 0.02 0.02 0.03 0.03 0.03 0.04 0.05 0.03 0.04 0.05 0.06 0.07 0.08 0.08 0.07 0.07 0.08 0.05 0.03 0.02 0.02 0.03 0.04 0.04 0.03 0.05 0.03 0.04 0.04 0.02 0.02 0.03 0.05 0.06 0.06 0.05 0.05
0.00 0.01 0.01 0.01 0.01 0.02 0.03 0.03 0.03 0.03 0.03 0.03 0.03 0.03 0.05 0.04 0.04 0.05 0.06 0.06 0.05 0.05 0.05 0.04 0.03 0.03 0.03 0.03 0.03 0.04 0.04 0.05 0.04 0.03 0.04 0.02 0.02 0.04 0.04 0.04 0.05 0.06 0.05
0.01 0.01 0.03 0.03 0.02 0.03 0.03 0.03 0.03 0.03 0.03 0.03 0.03 0.04 0.04 0.05 0.06 0.05 0.05 0.06 0.04 0.04 0.04 0.04 0.03 0.04 0.03 0.02 0.03 0.04 0.05 0.06 0.06 0.04 0.03 0.02 0.02 0.02 0.03 0.04 0.04 0.05 0.04
0.01 0.01 0.02 0.02 0.01 0.02 0.02 0.01 0.01 0.01 0.01 0.03 0.03 0.03 0.04 0.07 0.08 0.07 0.07 0.07 0.05 0.04 0.04 0.04 0.04 0.04 0.03 0.03 0.03 0.04 0.04 0.05 0.03 0.02 0.03 0.03 0.01 0.01 0.02 0.04 0.04 0.04 0.04
0.02 0.02 0.01 0.00 0.01 0.01 0.02 0.01 0.01 0.02 0.02 0.02 0.01 0.02 0.05 0.10 0.11 0.10 0.09 0.09 0.08 0.06 0.04 0.04 0.04 0.05 0.06 0.06 0.06 0.05 0.03 0.04 0.04 0.03 0.03 0.04 0.03 0.03 0.02 0.03 0.04 0.04 0.04
0.02 0.01 0.01 0.01 0.01 0.02 0.03 0.02 0.03 0.03 0.02 0.02 0.02 0.03 0.07 0.12 0.12 0.13 0.14 0.14 0.11 0.07 0.04 0.03 0.04 0.05 0.04 0.05 0.04 0.04 0.04 0.04 0.04 0.04 0.04 0.05 0.05 0.03 0.02 0.02 0.02 0.02 0.03
0.01 0.02 0.02 0.01 0.01 0.01 0.02 0.03 0.03 0.04 0.04 0.03 0.04 0.06 0.10 0.11 0.07 0.07 0.09 0.07 0.05 0.05 0.05 0.05 0.05 0.04 0.04 0.06 0.05 0.06 0.05 0.05 0.04 0.06 0.06 0.06 0.05 0.04 0.02 0.02 0.03 0.02 0.02
0.02 0.03 0.03 0.03 0.02 0.01 0.02 0.03 0.05 0.05 0.05 0.04 0.04 0.07 0.08 0.06 0.03 0.05 0.03 0.05 0.05 0.05 0.05 0.04 0.04 0.04 0.03 0.04 0.05 0.05 0.05 0.05 0.06 0.08 0.07 0.08 0.08 0.07 0.05 0.04 0.04 0.03 0.02
0.02 0.02 0.03 0.03 0.02 0.02 0.03 0.03 0.03 0.05 0.03 0.02 0.03 0.04 0.05 0.03 0.02 0.02 0.03 0.02 0.04 0.04 0.04 0.03 0.04 0.04 0.04 0.04 0.05 0.05 0.04 0.05 0.06 0.07 0.06 0.07 0.10 0.08 0.07 0.06 0.05 0.04 0.03
0.02 0.02 0.03 0.03 0.02 0.03 0.04 0.03 0.02 0.03 0.02 0.02 0.03 0.04 0.04 0.03 0.02 0.02 0.03 0.02 0.02 0.02 0.03 0.03 0.03 0.05 0.07 0.07 0.05 0.05 0.05 0.04 0.04 0.06 0.05 0.04 0.05 0.05 0.05 0.05 0.05 0.05 0.04
0.02 0.02 0.02 0.03 0.02 0.02 0.03 0.02 0.02 0.04 0.04 0.04 0.05 0.04 0.03 0.01 0.01 0.02 0.02 0.02 0.03 0.02 0.03 0.03 0.02 0.04 0.05 0.05 0.05 0.04 0.04 0.04 0.04 0.04 0.04 0.03 0.04 0.04 0.03 0.03 0.03 0.03 0.02
0.01 0.01 0.01 0.02 0.02 0.01 0.02 0.03 0.04 0.03 0.04 0.04 0.05 0.05 0.04 0.02 0.01 0.01 0.01 0.03 0.03 0.02 0.03 0.04 0.03 0.03 0.04 0.05 0.05 0.05 0.05 0.04 0.03 0.04 0.05 0.05 0.04 0.03 0.02 0.01 0.01 0.02 0.02
0.00 0.00 0.01 0.01 0.01 0.01 0.01 0.02 0.02 0.03 0.03 0.04 0.04 0.04 0.04 0.05 0.04 0.03 0.03 0.03 0.03 0.04 0.03 0.03 0.03 0.03 0.04 0.06 0.05 0.04 0.05 0.04 0.03 0.04 0.05 0.05 0.05 0.04 0.03 0.02 0.02 0.02 0.02
MSLP
1009.66 1009.17 1008.97 1009.07 1009.44 1009.99 1010.62 1011.23 1011.74 1012.13 1012.41 1012.62 1012.81 1013.04 1013.32 1013.65 1013.97 1014.27 1014.50 1014.64 1014.70 1014.72 1014.74 1014.78 1014.88 1015.01 1015.17 1015.30 1015.36 1015.34 1015.24 1015.07 1014.87 1014.69 1014.55 1014.46 1014.44 1014.44 1014.45 1014.44 1014.41 1014.37 1014.32
1010.31 1009.91 1009.77 1009.90 1010.26 1010.77 1011.34 1011.86 1012.29 1012.61 1012.82 1012.98 1013.15 1013.37 1013.65 1013.97 1014.29 1014.57 1014.78 1014.90 1014.94 1014.93 1014.93 1014.97 1015.06 1015.19 1015.33 1015.43 1015.47 1015.40 1015.24 1015.02 1014.76 1014.53 1014.36 1014.26 1014.24 1014.27 1014.32 1014.36 1014.39 1014.39 1014.40
1010.94 1010.65 1010.58 1010.74 1011.09 1011.57 1012.07 1012.52 1012.87 1013.10 1013.25 1013.36 1013.48 1013.67 1013.92 1014.22 1014.52 1014.77 1014.95 1015.04 1015.06 1015.05 1015.04 1015.07 1015.15 1015.27 1015.40 1015.48 1015.47 1015.35 1015.13 1014.84 1014.53 1014.25 1014.04 1013.93 1013.90 1013.95 1014.04 1014.13 1014.22 1014.29 1014.35
1011.50 1011.31 1011.31 1011.51 1011.87 1012.31 1012.77 1013.15 1013.43 1013.59 1013.68 1013.73 1013.82 1013.96 1014.17 1014.43 1014.69 1014.90 1015.05 1015.11 1015.11 1015.08 1015.07 1015.10 1015.18 1015.29 1015.39 1015.43 1015.37 1015.20 1014.92 1014.56 1014.19 1013.86 1013.62 1013.49 1013.46 1013.53 1013.64 1013.78 1013.92 1014.05 1014.17
1011.93 1011.84 1011.90 1012.15 1012.52 1012.96 1013.38 1013.72 1013.94 1014.06 1014.10 1014.11 1014.15 1014.26 1014.42 1014.63 1014.84 1015.00 1015.10 1015.13 1015.11 1015.06 1015.04 1015.07 1015.14 1015.23 1015.30 1015.31 1015.20 1014.97 1014.63 1014.23 1013.81 1013.44 1013.17 1013.02 1012.98 1013.05 1013.18 1013.35 1013.52 1013.70 1013.87
1012.24 1012.22 1012.34 1012.63 1013.02 1013.46 1013.86 1014.18 1014.38 1014.47 1014.49 1014.47 1014.49 1014.55 1014.68 1014.83 1014.99 1015.10 1015.15 1015.14 1015.08 1015.02 1014.98 1014.99 1015.04 1015.11 1015.15 1015.11 1014.95 1014.68 1014.30 1013.85 1013.41 1013.02 1012.73 1012.57 1012.53 1012.60 1012.73 1012.91 1013.10 1013.30 1013.50
1012.44 1012.47 1012.63 1012.95 1013.36 1013.80 1014.21 1014.52 1014.71 1014.80 1014.81 1014.79 1014.79 1014.83 1014.92 1015.03 1015.14 1015.20 1015.19 1015.13 1015.04 1014.95 1014.88 1014.87 1014.89 1014.92 1014.92 1014.83 1014.64 1014.33 1013.92 1013.47 1013.02 1012.63 1012.35 1012.20 1012.16 1012.22 1012.35 1012.51 1012.70 1012.89 1013.10
1012.57 1012.62 1012.81 1013.14 1013.56 1014.00 1014.41 1014.72 1014.91 1015.00 1015.02 1015.02 1015.02 1015.06 1015.12 1015.20 1015.25 1015.26 1015.21 1015.10 1014.96 1014.83 1014.73 1014.68 1014.67 1014.66 1014.61 1014.49 1014.26 1013.93 1013.52 1013.08 1012.65 1012.29 1012.05 1011.91 1011.89 1011.94 1012.05 1012.19 1012.34 1012.51 1012.69
1012.65 1012.71 1012.91 1013.24 1013.65 1014.08 1014.46 1014.77 1014.96 1015.06 1015.10 1015.11 1015.13 1015.17 1015.22 1015.28 1015.30 1015.26 1015.16 1015.01 1014.83 1014.66 1014.52 1014.43 1014.37 1014.32 1014.23 1014.07 1013.82 1013.49 1013.09 1012.68 1012.29 1011.99 1011.79 1011.70 1011.70 1011.75 1011.84 1011.94 1012.05 1012.16 1012.29
1012.73 1012.79 1012.98 1013.29 1013.66 1014.06 1014.41 1014.68 1014.87 1014.97 1015.01 1015.04 1015.08 1015.13 1015.19 1015.23 1015.23 1015.16 1015.02 1014.83 1014.62 1014.41 1014.23 1014.10 1014.01 1013.92 1013.80 1013.61 1013.35 1013.01 1012.64 1012.26 1011.94 1011.70 1011.56 1011.51 1011.54 1011.60 1011.67 1011.72 1011.77 1011.81 1011.88
1012.81 1012.86 1013.03 1013.30 1013.64 1013.97 1014.27 1014.50 1014.65 1014.73 1014.78 1014.82 1014.87 1014.94 1015.00 1015.04 1015.03 1014.94 1014.78 1014.56 1014.32 1014.09 1013.89 1013.73 1013.61 1013.49 1013.34 1013.14 1012.86 1012.53 1012.18 1011.84 1011.57 1011.38 1011.30 1011.30 1011.35 1011.42 1011.47 1011.49 1011.47 1011.44 1011.44
1012.87 1012.92 1013.07 1013.30 1013.58 1013.85 1014.07 1014.24 1014.34 1014.39 1014.43 1014.47 1014.53 1014.61 1014.68 1014.72 1014.70 1014.61 1014.43 1014.20 1013.95 1013.71 1013.50 1013.34 1013.20 1013.07 1012.90 1012.68 1012.40 1012.07 1011.73 1011.42 1011.17 1011.03 1010.99 1011.03 1011.10 1011.18 1011.21 1011.19 1011.12 1011.02 1010.95
1012.88 1012.94 1013.08 1013.28 1013.50 1013.70 1013.85 1013.95 1013.99 1014.00 1014.01 1014.05 1014.11 1014.19 1014.27 1014.31 1014.29 1014.19 1014.02 1013.79 1013.54 1013.31 1013.11 1012.95 1012.82 1012.68 1012.51 1012.28 1011.99 1011.65 1011.31 1011.00 1010.77 1010.65 1010.63 1010.68 1010.78 1010.86 1010.88 1010.83 1010.72 1010.57 1010.43
1012.82 1012.90 1013.04 1013.22 1013.40 1013.54 1013.63 1013.66 1013.65 1013.62 1013.60 1013.62 1013.67 1013.75 1013.83 1013.87 1013.85 1013.75 1013.58 1013.36 1013.13 1012.91 1012.73 1012.59 1012.48 1012.35 1012.18 1011.95 1011.65 1011.30 1010.94 1010.61 1010.37 1010.24 1010.23 1010.29 1010.39 1010.48 1010.50 1010.44 1010.30 1010.11 1009.92
1012.66 1012.77 1012.93 1013.11 1013.26 1013.38 1013.43 1013.42 1013.36 1013.30 1013.26 1013.25 1013.29 1013.36 1013.42 1013.45 1013.42 1013.32 1013.15 1012.94 1012.73 1012.53 1012.38 1012.26 1012.17 1012.06 1011.90 1011.67 1011.36 1011.00 1010.62 1010.27 1010.01 1009.86 1009.84 1009.90 1010.01 1010.10 1010.14 1010.09 1009.94 1009.73 1009.51
1012.40 1012.55 1012.73 1012.93 1013.09 1013.20 1013.24 1013.22 1013.15 1013.08 1013.02 1012.99 1013.01 1013.06 1013.10 1013.11 1013.07 1012.95 1012.78 1012.58 1012.37 1012.19 1012.06 1011.97 1011.90 1011.81 1011.66 1011.44 1011.13 1010.76 1010.36 1010.00 1009.72 1009.56 1009.52 1009.59 1009.71 1009.83 1009.89 1009.87 1009.74 1009.53 1009.28
1012.04 1012.23 1012.45 1012.68 1012.87 1013.01 1013.07 1013.07 1013.02 1012.95 1012.89 1012.86 1012.86 1012.88 1012.89 1012.88 1012.81 1012.67 1012.49 1012.28 1012.07 1011.90 1011.78 1011.70 1011.64 1011.57 1011.44 1011.23 1010.93 1010.57 1010.18 1009.81 1009.53 1009.37 1009.34 1009.42 1009.57 1009.73 1009.84 1009.86 1009.76 1009.57 1009.32
1011.63 1011.84 1012.10 1012.37 1012.61 1012.79 1012.91 1012.95 1012.94 1012.90 1012.86 1012.83 1012.82 1012.82 1012.80 1012.76 1012.66 1012.50 1012.29 1012.07 1011.85 1011.67 1011.55 1011.47 1011.41 1011.35 1011.24 1011.05 1010.78 1010.44 1010.08 1009.74 1009.48 1009.34 1009.33 1009.45 1009.64 1009.85 1010.02 1010.09 1010.05 1009.89 1009.64
1011.19 1011.42 1011.70 1012.01 1012.30 1012.55 1012.73 1012.84 1012.89 1012.90 1012.90 1012.88 1012.88 1012.86 1012.83 1012.76 1012.63 1012.45 1012.23 1011.98 1011.75 1011.55 1011.41 1011.32 1011.25 1011.19 1011.09 1010.93 1010.70 1010.41 1010.10 1009.81 1009.60 1009.50 1009.54 1009.69 1009.93 1010.20 1010.43 1010.57 1010.58 1010.46 1010.23
1010.73 1010.97 1011.27 1011.61 1011.95 1012.26 1012.52 1012.71 1012.84 1012.93 1012.97 1012.99 1013.00 1012.99 1012.95 1012.87 1012.73 1012.54 1012.31 1012.05 1011.80 1011.59 1011.42 1011.30 1011.22 1011.16 1011.07 1010.94 1010.75 1010.52 1010.27 1010.05 1009.90 1009.86 1009.94 1010.14 1010.42 1010.73 1011.02 1011.22 1011.29 1011.22 1011.01
1010.27 1010.51 1010.81 1011.18 1011.56 1011.94 1012.28 1012.56 1012.78 1012.94 1013.06 1013.13 1013.18 1013.19 1013.17 1013.09 1012.97 1012.79 1012.56 1012.31 1012.06 1011.83 1011.64 1011.49 1011.39 1011.31 1011.23 1011.13 1010.99 1010.82 1010.64 1010.48 1010.39 1010.40 1010.52 1010.74 1011.05 1011.39 1011.71 1011.95 1012.07 1012.04 1011.86
1009.80 1010.03 1010.35 1010.73 1011.15 1011.59 1012.01 1012.38 1012.70 1012.95 1013.15 1013.29 1013.39 1013.45 1013.46 1013.43 1013.34 1013.20 1013.00 1012.77 1012.53 1012.30 1012.10 1011.94 1011.81 1011.72 1011.64 1011.55 1011.45 1011.33 1011.21 1011.11 1011.07 1011.10 1011.23 1011.45 1011.74 1012.07 1012.39 1012.65 1012.80 1012.81 1012.68
1009.30 1009.55 1009.88 1010.28 1010.74 1011.24 1011.73 1012.20 1012.61 1012.96 1013.25 1013.47 1013.64 1013.76 1013.83 1013.86 1013.83 1013.75 1013.61 1013.43 1013.22 1013.01 1012.81 1012.64 1012.50 1012.39 1012.31 1012.24 1012.16 1012.08 1011.99 1011.92 1011.89 1011.91 1012.01 1012.19 1012.42 1012.70 1012.98 1013.22 1013.38 1013.42 1013.34
1008.76 1009.05 1009.41 1009.85 1010.36 1010.91 1011.48 1012.03 1012.54 1012.98 1013.36 1013.67 1013.91 1014.11 1014.25 1014.35 1014.40 1014.40 1014.34 1014.23 1014.07 1013.90 1013.72 1013.55 1013.41 1013.30 1013.21 1013.14 1013.07 1013.00 1012.93 1012.86 1012.81 1012.79 1012.82 1012.90 1013.04 1013.23 1013.43 1013.62 1013.77 1013.84 1013.80
1008.21 1008.55 1008.96 1009.45 1010.01 1010.62 1011.26 1011.90 1012.49 1013.03 1013.49 1013.88 1014.20 1014.47 1014.69 1014.87 1015.00 1015.08 1015.11 1015.08 1014.99 1014.87 1014.73 1014.58 1014.45 1014.33 1014.24 1014.17 1014.11 1014.04 1013.96 1013.87 1013.77 1013.68 1013.61 1013.57 1013.59 1013.65 1013.75 1013.87 1013.98 1014.05 1014.06
1007.67 1008.09 1008.56 1009.11 1009.72 1010.40 1011.11 1011.82 1012.49 1013.10 1013.64 1014.10 1014.49 1014.82 1015.11 1015.36 1015.57 1015.73 1015.84 1015.89 1015.88 1015.82 1015.72 1015.61 1015.49 1015.39 1015.30 1015.23 1015.16 1015.09 1014.99 1014.87 1014.71 1014.53 1014.35 1014.19 1014.07 1013.99 1013.97 1014.00 1014.06 1014.13 1014.17
Thickness
5789 5787 5781 5781 5781 5780 5779 5779 5778 5777 5777 5776 5775 5774 5774 5772 5771 5770 5769 5768 5767 5767 5766 5765 5764 5763 5763 5762 5762 5761 5759 5759 5758 5757 5757 5756 5755 5754 5752 5752 5752 5751 5748
5791 5787 5781 5780 5780 5779 5778 5777 5777 5776 5775 5775 5774 5773 5772 5771 5770 5769 5768 5767 5767 5766 5765 5764 5763 5762 5762 5761 5761 5760 5759 5758 5757 5756 5756 5755 5754 5753 5752 5751 5751 5750 5748
5791 5786 5781 5779 5779 5778 5777 5776 5776 5775 5775 5774 5773 5772 5771 5770 5769 5768 5767 5766 5766 5765 5764 5763 5763 5762 5761 5760 5759 5758 5758 5757 5756 5756 5756 5757 5755 5752 5751 5750 5749 5748 5747
5791 5787 5783 5779 5778 5777 5776 5776 5775 5775 5774 5773 5772 5771 5770 5769 5768 5767 5767 5766 5765 5764 5764 5763 5762 5761 5760 5759 5758 5757 5756 5756 5756 5757 5759 5759 5757 5753 5751 5749 5748 5747 5746
5790 5787 5782 5778 5777 5777 5776 5775 5775 5774 5774 5773 5772 5771 5770 5768 5767 5767 5766 5765 5765 5764 5763 5763 5762 5761 5760 5759 5758 5757 5756 5756 5756 5758 5760 5759 5756 5753 5751 5749 5748 5746 5745
5790 5787 5782 5778 5777 5776 5776 5776 5775 5774 5773 5772 5771 5770 5769 5767 5766 5766 5766 5765 5764 5763 5763 5762 5761 5760 5759 5758 5757 5756 5756 5756 5758 5761 5761 5760 5757 5753 5751 5749 5748 5747 5745
5791 5788 5783 5778 5777 5776 5776 5775 5774 5773 5772 5771 5770 5769 5768 5767 5766 5766 5765 5765 5764 5763 5762 5761 5760 5759 5758 5757 5757 5756 5756 5756 5760 5762 5761 5760 5757 5752 5751 5749 5748 5747 5745
5793 5790 5784 5779 5777 5776 5775 5774 5773 5772 5771 5771 5770 5769 5768 5767 5766 5765 5765 5764 5764 5762 5762 5761 5760 5759 5758 5757 5757 5756 5756 5756 5760 5763 5762 5761 5756 5752 5751 5749 5748 5747 5745
5794 5792 5788 5784 5779 5776 5775 5773 5773 5772 5771 5770 5769 5768 5767 5766 5766 5765 5765 5764 5763 5762 5761 5761 5760 5759 5758 5758 5757 5756 5756 5757 5761 5762 5762 5760 5755 5752 5751 5749 5748 5747 5746
5793 5791 5788 5786 5783 5782 5778 5774 5772 5770 5770 5769 5768 5768 5767 5766 5766 5765 5765 5764 5763 5762 5761 5761 5760 5759 5758 5758 5757 5757 5757 5758 5762 5764 5763 5759 5754 5752 5751 5749 5748 5747 5746
5789 5790 5790 5788 5785 5783 5781 5776 5773 5771 5770 5769 5769 5767 5767 5769 5769 5767 5766 5764 5763 5762 5762 5761 5760 5760 5759 5758 5758 5757 5758 5762 5763 5763 5761 5757 5754 5752 5751 5750 5748 5747 5746
5787 5789 5789 5788 5786 5784 5781 5778 5776 5776 5773 5771 5770 5770 5770 5769 5768 5768 5765 5764 5763 5762 5762 5761 5761 5760 5761 5763 5761 5759 5763 5764 5764 5764 5760 5756 5753 5751 5750 5750 5749 5747 5746
5791 5789 5789 5788 5785 5784 5781 5780 5778 5777 5774 5773 5771 5770 5770 5769 5769 5768 5767 5766 5765 5765 5765 5764 5764 5765 5765 5764 5764 5764 5764 5765 5765 5764 5760 5755 5753 5752 5751 5750 5749 5748 5746
5792 5790 5790 5788 5785 5782 5782 5780 5778 5778 5776 5775 5772 5771 5771 5770 5770 5769 5768 5768 5768 5767 5766 5767 5766 5765 5764 5764 5764 5764 5764 5764 5764 5763 5759 5755 5753 5752 5751 5750 5749 5748 5746
5793 5792 5791 5787 5783 5781 5779 5779 5780 5778 5778 5776 5772 5772 5771 5772 5771 5770 5769 5768 5769 5768 5768 5767 5767 5765 5765 5764 5765 5764 5764 5763 5763 5763 5760 5756 5754 5752 5751 5750 5749 5748 5746
5794 5793 5792 5788 5785 5782 5780 5780 5779 5779 5776 5777 5775 5773 5772 5772 5771 5771 5770 5769 5770 5770 5769 5768 5768 5766 5767 5766 5765 5765 5764 5764 5762 5761 5761 5758 5755 5753 5751 5750 5749 5748 5747
5797 5795 5793 5790 5788 5784 5783 5782 5781 5781 5780 5778 5776 5773 5772 5772 5771 5771 5771 5771 5771 5771 5769 5768 5768 5768 5768 5767 5766 5765 5765 5764 5763 5762 5761 5761 5759 5755 5752 5750 5749 5748 5747
5800 5797 5794 5794 5790 5786 5784 5782 5783 5782 5780 5778 5777 5775 5773 5771 5771 5771 5772 5772 5771 5771 5770 5769 5769 5768 5768 5767 5766 5766 5766 5764 5763 5762 5762 5761 5760 5759 5754 5751 5749 5748 5747
5803 5798 5795 5794 5790 5788 5785 5783 5783 5781 5780 5779 5777 5776 5774 5772 5771 5772 5772 5771 5771 5771 5771 5771 5770 5768 5766 5765 5766 5766 5766 5765 5764 5764 5763 5761 5760 5758 5757 5752 5750 5748 5746
5805 5801 5797 5794 5791 5788 5786 5784 5782 5781 5780 5779 5778 5776 5773 5773 5772 5772 5772 5771 5771 5771 5769 5768 5766 5766 5766 5765 5767 5766 5766 5766 5765 5764 5763 5762 5760 5759 5758 5755 5752 5749 5746
5807 5802 5798 5795 5792 5789 5787 5784 5781 5779 5780 5779 5778 5775 5773 5772 5771 5771 5772 5770 5770 5769 5767 5767 5766 5764 5764 5765 5763 5762 5764 5766 5765 5763 5762 5761 5760 5758 5756 5754 5753 5751 5748
5807 5803 5800 5796 5793 5791 5789 5786 5783 5782 5781 5780 5778 5774 5772 5771 5770 5771 5769 5770 5769 5767 5766 5765 5763 5764 5764 5763 5761 5758 5756 5758 5760 5763 5761 5759 5758 5757 5755 5754 5752 5748 5748
5809 5806 5803 5799 5795 5792 5790 5788 5785 5781 5779 5778 5775 5773 5771 5770 5769 5768 5768 5768 5767 5768 5766 5763 5762 5760 5759 5760 5761 5757 5752 5750 5755 5758 5758 5757 5755 5754 5754 5753 5751 5748 5747
5814 5811 5806 5801 5797 5793 5790 5788 5784 5779 5776 5775 5774 5773 5771 5769 5768 5767 5766 5765 5765 5766 5763 5763 5763 5761 5758 5757 5758 5757 5756 5755 5749 5749 5754 5756 5755 5752 5752 5752 5751 5748 5745
5818 5813 5808 5802 5797 5794 5791 5788 5783 5781 5779 5778 5774 5771 5769 5769 5767 5766 5765 5764 5763 5764 5762 5760 5759 5758 5758 5756 5754 5754 5752 5751 5750 5746 5744 5746 5750 5751 5750 5748 5748 5746 5744
5819 5814 5809 5801 5796 5793 5790 5787 5783 5780 5777 5775 5772 5770 5769 5769 5767 5765 5764 5762 5761 5761 5759 5757 5756 5755 5754 5752 5752 5751 5749 5748 5746 5746 5742 5741 5743 5747 5747 5747 5745 5744 5741